Location: Prairie State College
(41.5244°N, 87.6382°W)
Time: 05:28:08
(UTC-05:00)

ARGOS Delta rocket - Visible Passes

Search period start: 25 June 2016 00:00
Search period end: 05 July 2016 00:00
Orbit: 636 x 838 km, 96.5° (Epoch: 24 June)

Date Brightness Start Highest point End Pass type
(mag) Time Alt. Az. Time Alt. Az. Time Alt. Az.
25 Jun 5.3 04:38:27 10° NNE 04:43:38 45° E 04:48:52 10° SSE visible
26 Jun 6.6 03:54:42 10° NE 03:58:23 18° E 04:02:04 10° SE visible
28 Jun 6.4 04:03:02 10° NE 04:07:17 23° E 04:11:32 10° SE visible
30 Jun 6.1 04:11:29 10° NNE 04:16:10 28° E 04:20:49 10° SSE visible
01 Jul 7.0 03:29:25 10° ENE 03:30:44 11° E 03:32:02 10° E visible
02 Jul 5.7 04:20:02 10° NNE 04:25:02 35° E 04:29:58 10° SSE visible
03 Jul 6.8 03:36:54 10° NE 03:39:40 14° E 03:42:25 10° ESE visible
04 Jul 5.4 04:28:39 10° NNE 04:33:53 43° E 04:39:02 10° SSE visible
